Location: Unspecified
(54.8508°N, 0.0000°E)
Time: 02:35:36
(UTC+00:00)

NOAA 16 DEB - Visible Passes

Search period start: 04 April 2026 00:00
Search period end: 14 April 2026 00:00
Orbit: 800 x 830 km, 98.8° (Epoch: 28 March)

Date Brightness Start Highest point End Pass type
(mag) Time Alt. Az. Time Alt. Az. Time Alt. Az.
4 Apr ? 20:40:40 20° E 20:42:57 27° NE 20:47:21 10° N visible
4 Apr ? 22:21:54 63° SSW 22:22:31 70° WSW 22:27:52 10° NNW visible
5 Apr ? 00:03:08 14° W 00:03:31 14° W 00:06:09 10° NW visible
5 Apr ? 20:17:55 13° E 20:20:50 20° NE 20:24:39 10° N visible
5 Apr ? 21:59:09 61° SSE 22:00:07 83° ENE 22:05:29 10° NNW visible
5 Apr ? 23:40:23 20° W 23:40:47 20° W 23:44:39 10° NW visible
6 Apr ? 19:55:48 10° E 19:58:47 15° NE 20:01:48 10° N visible
6 Apr ? 21:36:23 44° ESE 21:37:47 59° ENE 21:43:02 10° N visible
6 Apr ? 23:17:37 28° WSW 23:18:07 29° W 23:22:43 10° NNW visible
7 Apr ? 19:34:58 10° ENE 19:36:47 12° NE 19:38:37 10° NNE visible
7 Apr ? 21:13:37 31° ESE 21:15:30 42° ENE 21:20:31 10° N visible
7 Apr ? 22:54:51 39° WSW 22:55:31 41° W 23:00:34 10° NNW visible
8 Apr ? 20:50:50 21° E 20:53:17 31° ENE 20:57:55 10° N visible
8 Apr ? 22:32:04 51° SW 22:32:59 59° WSW 22:38:17 10° NNW visible
9 Apr ? 00:13:18 11° W 00:14:08 11° W 00:15:48 10° WNW visible
9 Apr ? 20:28:04 14° E 20:31:08 23° NE 20:35:15 10° N visible
9 Apr ? 22:09:17 55° S 22:10:32 84° WSW 22:15:55 10° NNW visible
9 Apr ? 23:50:31 16° W 23:51:20 17° W 23:54:45 10° NW visible
10 Apr ? 20:05:37 10° E 20:09:01 18° NE 20:12:27 10° N visible
10 Apr ? 21:46:30 44° SE 21:48:08 69° ENE 21:53:29 10° NNW visible
10 Apr ? 23:27:44 23° WSW 23:28:37 24° W 23:32:57 10° NW visible
11 Apr ? 19:44:31 10° ENE 19:46:58 13° NE 19:49:26 10° NNE visible
11 Apr ? 21:23:43 32° ESE 21:25:49 49° ENE 21:30:58 10° N visible
11 Apr ? 23:04:56 32° WSW 23:05:58 35° W 23:10:51 10° NNW visible
12 Apr ? 21:00:55 22° ESE 21:03:32 36° ENE 21:08:22 10° N visible
12 Apr ? 22:42:09 42° SW 22:43:23 50° W 22:48:36 10° NNW visible
13 Apr ? 20:38:06 15° E 20:41:19 26° NE 20:45:42 10° N visible
13 Apr ? 22:19:20 47° S 22:20:52 72° WSW 22:26:15 10° NNW visible
